Rose Hill, VA

12:23 PM EST on February 13, 2016 (GMT -0500)
Jonesville

Weather History for K0VG - April, 2013

Change the Weather History Date:

Tuesday, April 2, 2013

  Actual Average (KLOZ) Record (KLOZ)
Temperature  
Mean Temperature 40 °F 52 °F  
Max Temperature 53 °F 64 °F 86 °F (2010)
Min Temperature 28 °F 41 °F 25 °F (1996)
Degree Days  
Heating Degree Days 24 13  
Month to date heating degree days 26  
Since 1 July heating degree days 3851  
Cooling Degree Days 0 0  
Month to date cooling degree days 0  
Year to date cooling degree days 3  
Moisture  
Dew Point 19 °F    
Average Humidity 44    
Maximum Humidity 93    
Minimum Humidity 20    
Precipitation  
Precipitation 0.00 in 0.13 in 1.03 in (1970)
Month to date precipitation 0.26  
Year to date precipitation 11.56  
Sea Level Pressure  
Sea Level Pressure 30.17 in    
Wind  
Wind Speed 2 mph (WNW)    
Max Wind Speed 12 mph    
Max Gust Speed -    
Visibility 10 miles    
Events      
T = Trace of Precipitation, MM = Missing Value Source: NWS Daily Summary

Daily Weather History Graph

Daily Weather History Graph

Search for Another Location

Airport or City:

Trip Planner

Search our weather history database for the weather conditions in past years. The results will help you decide how hot, cold, wet, or windy it might be!

Date:

Astronomy

Apr. 02, 2013 Rise Set
Actual Time 7:17 AM EDT 7:56 PM EDT
Civil Twilight 6:50 AM EDT 8:22 PM EDT
Nautical Twilight 6:20 AM EDT 8:53 PM EDT
Astronomical Twilight 5:48 AM EDT 9:24 PM EDT
Moon 1:53 AM EDT (4/2) 12:13 PM EDT (4/2)
Length of Visible Light 13h 31m
Length of Day
12h 39m
Waning Gibbous, 56% of the Moon is Illuminated
Apr 2
Waning Gibbous
Apr 3
Last Quarter
Apr 10
New
Apr 18
First Quarter
Apr 25
Full

Hourly Weather History & Observations

Time (EDT) Temp. Windchill Dew Point Humidity Pressure Visibility Wind Dir Wind Speed Gust Speed Precip Events Conditions
12:15 AM 41.0 °F - 28.4 °F 61% 30.10 in 10.0 mi Calm Calm - N/A   Scattered Clouds
12:35 AM 41.0 °F - 28.4 °F 61% 30.09 in 10.0 mi Calm Calm - N/A   Scattered Clouds
12:55 AM 41.0 °F 38.0 °F 26.6 °F 57% 30.10 in 10.0 mi NW 4.6 mph - N/A   Scattered Clouds
1:15 AM 39.2 °F - 26.6 °F 61% 30.10 in 10.0 mi Calm Calm - N/A   Scattered Clouds
1:35 AM 39.2 °F - 26.6 °F 61% 30.09 in 10.0 mi Calm Calm - N/A   Partly Cloudy
1:55 AM 37.4 °F - 30.2 °F 75% 30.10 in 10.0 mi Calm Calm - N/A   Partly Cloudy
2:15 AM 37.4 °F - 26.6 °F 65% 30.10 in 10.0 mi Calm Calm - N/A   Clear
2:35 AM 39.2 °F - 24.8 °F 56% 30.10 in 10.0 mi Calm Calm - N/A   Partly Cloudy
2:55 AM 39.2 °F 34.2 °F 23.0 °F 52% 30.10 in 10.0 mi NW 6.9 mph - N/A   Scattered Clouds
3:15 AM 39.2 °F - 23.0 °F 52% 30.10 in 10.0 mi Calm Calm - N/A   Mostly Cloudy
3:35 AM 39.2 °F - 23.0 °F 52% 30.11 in 10.0 mi Calm Calm - N/A   Scattered Clouds
3:55 AM 37.4 °F - 23.0 °F 56% 30.11 in 10.0 mi Calm Calm - N/A   Mostly Cloudy
4:15 AM 37.4 °F - 23.0 °F 56% 30.12 in 10.0 mi Calm Calm - N/A   Scattered Clouds
4:35 AM 37.4 °F - 23.0 °F 56% 30.12 in 10.0 mi Calm Calm - N/A   Partly Cloudy
4:55 AM 35.6 °F - 23.0 °F 60% 30.13 in 10.0 mi Calm Calm - N/A   Clear
5:15 AM 32.0 °F - 26.6 °F 80% 30.14 in 10.0 mi Calm Calm - N/A   Clear
5:35 AM 32.0 °F - 26.6 °F 80% 30.15 in 10.0 mi Calm Calm - N/A   Unknown
5:55 AM 32.0 °F - 26.6 °F 80% 30.17 in 10.0 mi Calm Calm - N/A   Unknown
6:15 AM 30.2 °F - 26.6 °F 86% 30.17 in 10.0 mi Calm Calm - N/A   Unknown
6:35 AM 30.2 °F - 26.6 °F 86% 30.18 in 10.0 mi Calm Calm - N/A   Unknown
6:55 AM 28.4 °F - 26.6 °F 93% 30.19 in 10.0 mi Calm Calm - N/A   Unknown
7:15 AM 28.4 °F - 26.6 °F 93% 30.20 in 10.0 mi Calm Calm - N/A   Unknown
7:35 AM 28.4 °F - 23.0 °F 80% 30.20 in 10.0 mi Calm Calm - N/A   Clear
7:55 AM 30.2 °F 26.7 °F 26.6 °F 86% 30.21 in 10.0 mi SW 3.5 mph - N/A   Clear
8:15 AM 32.0 °F - 26.6 °F 80% 30.22 in 10.0 mi Calm Calm - N/A   Clear
8:35 AM 33.8 °F 30.8 °F 24.8 °F 70% 30.22 in 10.0 mi SW 3.5 mph - N/A   Clear
8:55 AM 35.6 °F - 21.2 °F 56% 30.23 in 10.0 mi Calm Calm - N/A   Clear
9:15 AM 39.2 °F - 17.6 °F 42% 30.23 in 10.0 mi Calm Calm - N/A   Clear
9:35 AM 39.2 °F 33.6 °F 17.6 °F 42% 30.24 in 10.0 mi NNE 8.1 mph - N/A   Clear
9:55 AM 39.2 °F 35.9 °F 15.8 °F 39% 30.24 in 10.0 mi NW 4.6 mph - N/A   Clear
10:15 AM 41.0 °F 35.8 °F 17.6 °F 39% 30.24 in 10.0 mi North 8.1 mph - N/A   Clear
10:35 AM 41.0 °F - 17.6 °F 39% 30.25 in 10.0 mi Calm Calm - N/A   Clear
10:55 AM 41.0 °F 35.8 °F 15.8 °F 36% 30.24 in 10.0 mi North 8.1 mph - N/A   Clear
11:15 AM 41.0 °F 38.0 °F 15.8 °F 36% 30.24 in 10.0 mi NNW 4.6 mph - N/A   Clear
11:35 AM 42.8 °F 40.1 °F 15.8 °F 34% 30.24 in 10.0 mi North 4.6 mph - N/A   Clear
11:55 AM 44.6 °F 41.4 °F 15.8 °F 31% 30.24 in 10.0 mi West 5.8 mph - N/A   Clear
12:15 PM 44.6 °F - 15.8 °F 31% 30.23 in 10.0 mi Calm Calm - N/A   Clear
12:35 PM 44.6 °F 42.2 °F 15.8 °F 31% 30.23 in 10.0 mi WNW 4.6 mph - N/A   Clear
12:55 PM 46.4 °F 45.2 °F 14.0 °F 27% 30.22 in 10.0 mi SSW 3.5 mph - N/A   Clear
1:15 PM 46.4 °F 44.3 °F 14.0 °F 27% 30.21 in 10.0 mi NNW 4.6 mph - N/A   Clear
1:35 PM 48.2 °F - 14.0 °F 25% 30.20 in 10.0 mi WNW 8.1 mph - N/A   Clear
1:55 PM 48.2 °F - 14.0 °F 25% 30.19 in 10.0 mi Calm Calm - N/A   Clear
2:15 PM 48.2 °F - 10.4 °F 22% 30.18 in 10.0 mi WNW 5.8 mph - N/A   Clear
2:35 PM 50.0 °F - 10.4 °F 20% 30.18 in 10.0 mi NW 5.8 mph - N/A   Clear
2:55 PM 50.0 °F - 14.0 °F 24% 30.17 in 10.0 mi Calm Calm - N/A   Clear
3:15 PM 50.0 °F - 14.0 °F 24% 30.16 in 10.0 mi WNW 5.8 mph - N/A   Clear
3:35 PM 50.0 °F - 14.0 °F 24% 30.16 in 10.0 mi South 4.6 mph - N/A   Clear
3:55 PM 51.8 °F - 15.8 °F 24% 30.15 in 10.0 mi NW 5.8 mph - N/A   Clear
4:15 PM 53.6 °F - 14.0 °F 21% 30.15 in 10.0 mi WSW 8.1 mph - N/A   Clear
4:35 PM 51.8 °F - 14.0 °F 22% 30.14 in 10.0 mi SW 9.2 mph - N/A   Clear
4:55 PM 51.8 °F - 14.0 °F 22% 30.14 in 10.0 mi WSW 11.5 mph - N/A   Clear
5:15 PM 51.8 °F - 14.0 °F 22% 30.15 in 10.0 mi West 4.6 mph - N/A   Clear
5:35 PM 50.0 °F - 14.0 °F 24% 30.15 in 10.0 mi WSW 11.5 mph - N/A   Clear
5:55 PM 50.0 °F - 12.2 °F 22% 30.15 in 10.0 mi WSW 8.1 mph - N/A   Clear
6:15 PM 50.0 °F - 14.0 °F 24% 30.16 in 10.0 mi West 8.1 mph - N/A   Clear
6:35 PM 48.2 °F - 12.2 °F 24% 30.16 in 10.0 mi West 11.5 mph - N/A   Clear
6:55 PM 48.2 °F - 14.0 °F 25% 30.17 in 10.0 mi West 6.9 mph - N/A   Clear
7:15 PM 48.2 °F - 14.0 °F 25% 30.16 in 10.0 mi West 6.9 mph - N/A   Clear
7:35 PM 48.2 °F - 15.8 °F 27% 30.16 in 10.0 mi Calm Calm - N/A   Clear
7:55 PM 46.4 °F 44.3 °F 17.6 °F 32% 30.17 in 10.0 mi West 4.6 mph - N/A   Clear
8:15 PM 46.4 °F - 17.6 °F 32% 30.18 in 10.0 mi Calm Calm - N/A   Clear
8:35 PM 44.6 °F - 17.6 °F 34% 30.17 in 10.0 mi Calm Calm - N/A   Clear
8:55 PM 44.6 °F - 17.6 °F 34% 30.18 in 10.0 mi Calm Calm - N/A   Clear
9:15 PM 44.6 °F 41.4 °F 17.6 °F 34% 30.18 in 10.0 mi NNW 5.8 mph - N/A   Clear
9:35 PM 44.6 °F - 14.0 °F 29% 30.19 in 10.0 mi Calm Calm - N/A   Clear
9:55 PM 44.6 °F - 15.8 °F 31% 30.20 in 10.0 mi Calm Calm - N/A   Clear
10:15 PM 44.6 °F - 14.0 °F 29% 30.20 in 10.0 mi Calm Calm - N/A   Clear
10:35 PM 42.8 °F 40.1 °F 12.2 °F 29% 30.21 in 10.0 mi NNW 4.6 mph - N/A   Clear
10:55 PM 42.8 °F - 12.2 °F 29% 30.22 in 10.0 mi Calm Calm - N/A   Clear
11:15 PM 41.0 °F - 10.4 °F 29% 30.22 in 10.0 mi Calm Calm - N/A   Clear
11:35 PM 39.2 °F - 15.8 °F 39% 30.22 in 10.0 mi Calm Calm - N/A   Clear
11:55 PM 41.0 °F 37.1 °F 12.2 °F 31% 30.23 in 10.0 mi NNW 5.8 mph - N/A   Clear